This demonstration page uses our WeatherBlox Daily Observations layout. Learn more.

Left ArrowRight Arrow

31.31129, -92.44514

Hourly Observations for October 29, 2015

Temp ( °F °C ) Dew Point ( °F °C ) Humidity (%) Winds ( mph kmh ) Pressure ( in mb ) Visibility ( mi km ) Precip ( " mm )
12:53 am 00:53 Clear with Mist and Fog 60 15.6 60 15.6 100 100 Calm 29.84 1010 5 8 0.00 0.00
1:53 am 01:53 Clear with Mist and Fog 60 15.6 59 15 96 96 Calm 29.84 1011 4 6 0.00 0.00
2:53 am 02:53 Clear with Mist and Fog 60 15.6 60 15.6 100 100 Calm 29.85 1011 3 4 0.00 0.00
3:18 am 03:18 Clear with Mist and Fog 59 15 59 15 100 100 Calm 29.83 1010 2 2 0.00 0.00
3:35 am 03:35 Clear with Mist and Fog 57 13.9 57 13.9 100 100 WNW 3 6 29.83 1010 3 5 0.00 0.00
3:53 am 03:53 Clear with Mist and Fog 57 13.9 57 13.9 100 100 NW 5 7 29.85 1011 4 6 0.00 0.00
4:53 am 04:53 Clear with Mist and Fog 57 13.9 57 13.9 100 100 Calm 29.87 1011 3 5 0.00 0.00
5:04 am 05:04 Clear with Mist and Fog 57 13.9 57 13.9 100 100 WNW 3 6 29.88 1012 2 3 0.00 0.00
5:20 am 05:20 Clear with Mist and Fog 57 13.9 57 13.9 100 100 Calm 29.88 1012 2 3 0.00 0.00
5:27 am 05:27 Clear with Mist and Fog 56 13.3 56 13.3 100 100 Calm 29.85 1011 1 2 0.00 0.00
5:39 am 05:39 Mostly Cloudy with Fog 56 13.3 56 13.3 100 100 NW 3 6 29.88 1012 1 1 0.00 0.00
5:46 am 05:46 Mostly Cloudy with Mist and Fog 54 12.2 54 12.2 100 100 NW 5 7 29.88 1012 1 2 0.00 0.00
5:53 am 05:53 Mostly Cloudy with Mist and Fog 54 12.2 54 12.2 100 100 NW 5 7 29.88 1012 1 2 0.00 0.00
6:00 am 06:00 Mostly Cloudy with Fog 54 12.2 54 12.2 100 100 WNW 5 7 29.88 1012 0 0 0.00 0.00
6:08 am 06:08 Mostly Cloudy with Mist and Fog 55 12.8 55 12.8 100 100 WNW 5 7 29.88 1012 1 2 0.00 0.00
6:12 am 06:12 Partly Cloudy with Mist and Fog 55 12.8 55 12.8 100 100 WNW 5 7 29.88 1012 2 3 0.00 0.00
6:39 am 06:39 Clear with Mist and Fog 56 13.3 56 13.3 100 100 Calm 29.88 1012 3 5 0.00 0.00
6:53 am 06:53 Clear with Mist and Fog 56 13.3 56 13.3 100 100 Calm 29.91 1013 4 6 0.00 0.00
7:12 am 07:12 Clear with Mist and Fog 56 13.3 56 13.3 100 100 Calm 29.91 1013 3 4 0.00 0.00
7:23 am 07:23 Clear with Mist and Fog 55 12.8 55 12.8 100 100 WNW 3 6 29.91 1013 3 5 0.00 0.00
7:31 am 07:31 Sunny with Mist and Fog 56 13.3 56 13.3 100 100 W 3 6 29.91 1013 2 3 0.00 0.00
7:43 am 07:43 Sunny with Mist and Fog 55 12.8 55 12.8 100 100 WNW 3 6 29.91 1013 1 2 0.00 0.00
7:53 am 07:53 Sunny with Fog 54 12.2 54 12.2 100 100 WNW 3 6 29.93 1014 1 1 0.00 0.00
8:06 am 08:06 Sunny with Mist and Fog 56 13.3 56 13.3 100 100 Calm 29.94 1014 1 2 0.00 0.00
8:29 am 08:29 Sunny with Mist and Fog 57 13.9 57 13.9 100 100 WNW 3 6 29.94 1014 3 5 0.00 0.00
8:53 am 08:53 Sunny with Mist and Fog 59 15 59 15 100 100 N 3 6 29.95 1014 3 5 0.00 0.00
9:53 am 09:53 Sunny with Mist and Fog 65 18.3 61 16.1 87 87 Calm 29.97 1015 6 10 0.00 0.00
10:53 am 10:53 Sunny 71 21.7 60 15.6 68 68 ENE 6 9 29.97 1015 8 13 0.00 0.00
11:53 am 11:53 Sunny 74 23.3 60 15.6 62 62 SW 5 7 29.98 1015 9 14 0.00 0.00
12:53 pm 12:53 Mostly Sunny 75 23.9 59 15 58 58 VRB 3 6 29.97 1015 10 16 0.00 0.00
1:53 pm 13:53 Mostly Cloudy 78 25.6 57 13.9 48 48 W 9 15 29.94 1014 10 16 0.00 0.00
2:53 pm 14:53 Sunny 76 24.4 53 11.7 45 45 SW 3 6 29.92 1013 10 16 0.00 0.00
3:53 pm 15:53 Sunny 77 25 53 11.7 43 43 WSW 5 7 29.91 1013 10 16 0.00 0.00
4:53 pm 16:53 Sunny 79 26.1 51 10.6 38 38 NNE 3 6 29.91 1013 10 16 0.00 0.00
5:53 pm 17:53 Sunny 75 23.9 54 12.2 48 48 Calm 29.91 1013 10 16 0.00 0.00
6:53 pm 18:53 Clear 65 18.3 56 13.3 73 73 Calm 29.92 1013 10 16 0.00 0.00
7:53 pm 19:53 Clear 62 16.7 55 12.8 78 78 Calm 29.93 1014 10 16 0.00 0.00
8:53 pm 20:53 Clear 61 16.1 58 14.4 90 90 Calm 29.95 1014 10 16 0.00 0.00
9:53 pm 21:53 Clear 60 15.6 58 14.4 93 93 E 3 6 29.95 1014 10 16 0.00 0.00
10:53 pm 22:53 Clear 59 15 57 13.9 93 93 Calm 29.96 1015 10 16 0.00 0.00
11:53 pm 23:53 Clear 59 15 57 13.9 93 93 Calm 29.97 1015 10 16 0.00 0.00

Powered by AerisWeather